SL-8 DEB, 1478

Orbit data source: Space-Track

SL-8 DEB, 1478 is space debris in LEO originally from a launch on Mon, 15 Mar 1965 UTC launched from the Tyuratam Missile And Space Complex (TTMTR). Debris objects in space refer to the collection of defunct objects orbiting the Earth. Examples of debris include non-operational satellites, rocket bodies, and fragments generated from explosions, collisions, or faulty payload assembly.

Loading next visibility...
Identifier
1478, 1965-020BC
Orbit
LEO
Country
Flag of CISCIS
Related business
Manufacturer
Unknown
Mission
Spacecraft
Bus & Motor
Unknown
Mass
Unknown
Launch date (UTC)
1965-03-15 (61 years ago)
Launch vehicle
Unknown
Launch site
Tyuratam Missile And Space Complex (TTMTR)
Object type
Payload
Rocket body
Debris
Shape & HBR
Unknown shape, 0.1 m
Radar Cross Section
Medium (>0.1 m² and <1 m²)

Expand to show TLE details & history
Last TLE update: 13 hours ago

TLE from 13 hours ago
0 SL-8 DEB
1 01478U 65020BC  26132.87175965  .00000142  00000-0  13464-3 0  9993
2 01478  56.0749 103.1133 0587234 176.9296 183.5531 13.55955918920080
Epoch: 2026-05-12T20:55Z
TLE epoch observation values (Epoch: 2026-05-12T20:55:20.033Z)
Latitude
0.00002°
Longitude
-81.36007°
Altitude
1,487.035 km
Speed
6.909 km/s
True Right ascension
06h 52m 27s
True Declination
0° 00' 00"
Sunlit
Object was in daylight at epoch
Visualization orbit readout
Latitude
Unknown
Longitude
Unknown
Altitude
Unknown
Speed
Unknown
Apparent Right ascension
Unknown
Apparent Declination
Unknown
Sunlit
N/A
Visualization observer readout
Local Sidereal Time
18:26:28
Azimuth
Unknown
Elevation
Unknown
Doppler factor
Unknown
Orbital elements
Apogee altitude
1,486.454 km
Perigee altitude
614.016 km
Semi-major axis
7,428.372 km
Eccentricity
0.05872
Inclination
56.0749°
RAAN
103.1133°
Arg. of periapsis
176.9296°
True anomaly
183.16461°
Mean anomaly
183.5531°
Eccentric anomaly
183.35613°
Mean motion
3.39002 °/min
Orbital period
106.19 mins
BSTAR
0.00013464
Loading maneuver chart data...
Computing Atmospheric mass density...
Loading historical data...
Loading historical data...
Loading historical data...
Loading historical data...
Loading historical data...
Loading historical data...
Loading historical data...

Documentation

Showing up to 5 results
|